Baltimore, MD

4:53 AM EDT on May 28, 2017 (GMT -0400)
Baltimore-Washington International

Weather History for KBWI - October, 2012

Change the Weather History Date:

Saturday, October 6, 2012

  Actual Average Record
Temperature  
Mean Temperature 64 °F 60 °F  
Max Temperature 79 °F 70 °F 95 °F (1941)
Min Temperature 48 °F 49 °F 33 °F (1965)
Degree Days  
Heating Degree Days 1 7  
Month to date heating degree days 6 35  
Since 1 July heating degree days 34 88  
Cooling Degree Days 0 1  
Month to date cooling degree days 24 7  
Year to date cooling degree days 1565 1152  
Growing Degree Days 14 (Base 50)    
Moisture  
Dew Point 53 °F    
Average Humidity 68    
Maximum Humidity 90    
Minimum Humidity 45    
Precipitation  
Precipitation 0.00 in 0.11 in 1.59 in (1932)
Month to date precipitation 0.56 0.68  
Year to date precipitation 25.24 32.56  
Snow  
Snow 0.00 in 0.00 in - ()
Month to date snowfall 0.0 0.0  
Since 1 July snowfall 0.0 0.0  
Snow Depth 0.00 in    
Sea Level Pressure  
Sea Level Pressure 29.91 in    
Wind  
Wind Speed 7 mph (WSW)    
Max Wind Speed 22 mph    
Max Gust Speed 29 mph    
Visibility 10 miles    
Events      
T = Trace of Precipitation, MM = Missing Value Source: NWS Daily Summary

Daily Weather History Graph

Daily Weather History Graph

Search for Another Location

Airport or City:

Trip Planner

Search our weather history database for the weather conditions in past years. The results will help you decide how hot, cold, wet, or windy it might be!

Date:

Astronomy

Oct. 06, 2012 Rise Set
Actual Time 7:07 AM EDT 6:40 PM EDT
Civil Twilight 6:41 AM EDT 7:07 PM EDT
Nautical Twilight 6:10 AM EDT 7:38 PM EDT
Astronomical Twilight 5:39 AM EDT 8:09 PM EDT
Moon 10:56 PM EDT (10/6) 12:58 PM EDT (10/6)
Length of Visible Light 12h 26m
Length of Day
11h 32m
Waning Gibbous, 65% of the Moon is Illuminated
Oct 6
Waning Gibbous
Oct 8
Last Quarter
Oct 15
New
Oct 21
First Quarter
Oct 29
Full

Hourly Weather History & Observations

Time (EDT) Temp. Dew Point Humidity Pressure Visibility Wind Dir Wind Speed Gust Speed Precip Events Conditions
12:54 AM 64.0 °F 57.9 °F 80% 29.93 in 10.0 mi SW 3.5 mph - N/A   Clear
1:54 AM 63.0 °F 57.9 °F 84% 29.92 in 10.0 mi SW 3.5 mph - N/A   Partly Cloudy
2:54 AM 62.1 °F 57.9 °F 86% 29.90 in 10.0 mi SW 5.8 mph - N/A   Partly Cloudy
3:54 AM 62.1 °F 57.9 °F 86% 29.88 in 10.0 mi SW 4.6 mph - N/A   Partly Cloudy
4:54 AM 62.1 °F 57.0 °F 84% 29.88 in 10.0 mi SW 5.8 mph - N/A   Partly Cloudy
5:54 AM 61.0 °F 57.9 °F 90% 29.88 in 10.0 mi SSW 4.6 mph - N/A   Scattered Clouds
6:54 AM 61.0 °F 57.9 °F 90% 29.87 in 9.0 mi South 4.6 mph - N/A   Scattered Clouds
7:54 AM 62.1 °F 57.9 °F 86% 29.86 in 9.0 mi SSW 5.8 mph - N/A   Scattered Clouds
8:54 AM 66.0 °F 59.0 °F 78% 29.85 in 10.0 mi SW 5.8 mph - N/A   Scattered Clouds
9:54 AM 70.0 °F 60.1 °F 71% 29.84 in 10.0 mi SW 10.4 mph - N/A   Mostly Cloudy
10:54 AM 73.0 °F 59.0 °F 61% 29.84 in 10.0 mi WSW 9.2 mph - N/A   Mostly Cloudy
11:54 AM 75.0 °F 60.1 °F 60% 29.83 in 10.0 mi SW 9.2 mph - N/A   Mostly Cloudy
12:54 PM 78.1 °F 57.9 °F 50% 29.83 in 10.0 mi WSW 10.4 mph - N/A   Mostly Cloudy
1:54 PM 72.0 °F 57.0 °F 59% 29.85 in 10.0 mi WNW 16.1 mph 26.5 mph N/A   Mostly Cloudy
2:54 PM 69.1 °F 54.0 °F 58% 29.87 in 10.0 mi WNW 19.6 mph 27.6 mph N/A   Mostly Cloudy
3:54 PM 70.0 °F 51.1 °F 51% 29.90 in 10.0 mi NW 13.8 mph 19.6 mph N/A   Scattered Clouds
4:54 PM 68.0 °F 46.9 °F 47% 29.91 in 10.0 mi NW 12.7 mph 24.2 mph N/A   Scattered Clouds
5:54 PM 64.0 °F 46.0 °F 52% 29.94 in 10.0 mi NW 13.8 mph 21.9 mph N/A   Scattered Clouds
6:54 PM 60.8 °F 42.8 °F 52% 29.96 in 10.0 mi NW 6.9 mph - N/A   Scattered Clouds
7:54 PM 57.9 °F 44.1 °F 60% 29.99 in 10.0 mi NW 5.8 mph - N/A   Partly Cloudy
8:54 PM 55.9 °F 45.0 °F 67% 30.02 in 10.0 mi WNW 5.8 mph - N/A   Partly Cloudy
9:54 PM 53.1 °F 45.0 °F 74% 30.03 in 10.0 mi Calm Calm - N/A   Clear
10:54 PM 50.0 °F 45.0 °F 83% 30.04 in 10.0 mi SW 3.5 mph - N/A   Partly Cloudy
11:54 PM 50.0 °F 45.0 °F 83% 30.04 in 10.0 mi Calm Calm - N/A   Partly Cloudy